DELTA 1 DEB, 20349

Orbit data source: Space-Track

DELTA 1 DEB, 20349 is space debris in LEO originally from a launch on Thu, 29 Jul 1976 UTC launched from the Air Force Western Test Range (AFWTR). Debris objects in space refer to the collection of defunct objects orbiting the Earth. Examples of debris include non-operational satellites, rocket bodies, and fragments generated from explosions, collisions, or faulty payload assembly.

Loading next visibility...
Identifier
20349, 1976-077FR
Orbit
LEO
Country
Flag of USUS
Related business
Manufacturer
Unknown
Mission
Spacecraft
Bus & Motor
Unknown
Mass
Unknown
Launch date (UTC)
1976-07-29 (50 years ago)
Launch vehicle
Unknown
Launch site
Air Force Western Test Range (AFWTR)
Object type
Payload
Rocket body
Debris
Shape & HBR
Unknown shape, 0.1 m
Radar Cross Section
Medium (>0.1 m² and <1 m²)

Expand to show TLE details & history
Last TLE update: 1 day ago

TLE from 1 day ago
0 DELTA 1 DEB
1 20349U 76077FR  26170.16691184  .00000261  00000-0  51089-2 0  9991
2 20349 102.5774 277.9947 0633951 178.4752 305.2038 11.33842848556001
Epoch: 2026-06-19T04:00Z
TLE epoch observation values (Epoch: 2026-06-19T04:00:21.182Z)
Latitude
60.08002°
Longitude
153.2019°
Altitude
1,719.132 km
Speed
7.14 km/s
True Right ascension
08h 02m 45s
True Declination
59° 56' 56"
Sunlit
Object was in daylight at epoch
Visualization orbit readout
Latitude
Unknown
Longitude
Unknown
Altitude
Unknown
Speed
Unknown
Apparent Right ascension
Unknown
Apparent Declination
Unknown
Sunlit
N/A
Visualization observer readout
Local Sidereal Time
01:25:29
Azimuth
Unknown
Elevation
Unknown
Doppler factor
Unknown
Orbital elements
Apogee altitude
2,519.548 km
Perigee altitude
1,458.664 km
Semi-major axis
8,367.243 km
Eccentricity
0.0634
Inclination
102.5774°
RAAN
277.9947°
Arg. of periapsis
178.4752°
True anomaly
298.99655°
Mean anomaly
305.2038°
Eccentric anomaly
302.12776°
Mean motion
2.83576 °/min
Orbital period
126.95 mins
BSTAR
0.0051089
Loading maneuver chart data...
Computing Atmospheric mass density...
Loading historical data...
Loading historical data...
Loading historical data...
Loading historical data...
Loading historical data...
Loading historical data...
Loading historical data...

Documentation

Showing up to 5 results
|